Regional Weather Roundup
Issued by NWS Northern Indiana

Home | Current Version | Previous Version | Graphics & Text | Print | Product List | Glossary On
Versions: 1 2 3 4 5 6 7 8 9 10 11 12 13 14 15 16 17 18 19 20 21 22 23 24 25 26 27 28 29 30 31 32 33 34 35 36 37 38 39 40 41 42 43 44 45 46 47 48 49 50
000
ASUS43 KIWX 222200
RWRIWX

KIWX WEATHER ROUNDUP
NATIONAL WEATHER SERVICE NORTHERN INDIANA
600 PM EDT FRI JUL 22 2016

NOTE: "FAIR" INDICATES FEW OR NO CLOUDS BELOW 12,000 FEET WITH NO
SIGNIFICANT WEATHER AND/OR OBSTRUCTIONS TO VISIBILITY.

* THESE STATIONS ARE NOT UNDER NWS QUALITY CONTROL. THEY ALSO MAY NOT
  REPORT WEATHER SUCH AS PRECIPITATION OR FOG.

INZ001>027-222300-
NORTHERN INDIANA

CITY           SKY/WX    TMP DP  RH WIND       PRES   REMARKS
GARY*          MOSUNNY   90  79  70 W6        29.98F HX 105
KNOX*          MOSUNNY   84  61  45 CALM      29.99F
SOUTH BEND     SUNNY     85  70  60 VRB5      29.99F
ELKHART*       SUNNY     86  73  66 W6        30.00F
GOSHEN         SUNNY     88  67  49 SW6       29.99F
MONTICELLO*    MOSUNNY   83  69  61 SW3       30.00S
WARSAW*        MOSUNNY   86  68  54 NW6       30.00S
ANGOLA*          N/A     90  84  84 NW6       29.99F HX 115
FORT WAYNE     PTSUNNY   88  70  55 SW6       29.99F

$$
INZ028>050-222300-
CENTRAL INDIANA

CITY           SKY/WX    TMP DP  RH WIND       PRES   REMARKS
LAFAYETTE      SUNNY     86  72  62 NW6       30.00S
KOKOMO*        PTSUNNY   90  72  55 W9        29.99F HX  96
MUNCIE*        MOSUNNY   87  71  58 NW7       30.00F
INDIANAPOLIS   PTSUNNY   89  70  53 NW8       30.01F

$$
MIZ043>046-050>051-056>058-064>065-071>073-077>080-222300-
SOUTHWEST LOWER MICHIGAN

CITY           SKY/WX    TMP DP  RH WIND       PRES   REMARKS
BATTLE CREEK   SUNNY     86  71  60 W10       29.99F
BENTON HARBOR  SUNNY     84  68  58 W7        29.98F
COLDWATER*     SUNNY     89  68  49 W8        29.99F
HOLLAND        SUNNY     82  69  64 SW7       29.99F
GRAND RAPIDS   MOSUNNY   86  69  56 SW12      29.98F
KALAMAZOO      SUNNY     87  67  51 W8        29.98F
STURGIS*       SUNNY     87  70  55 W3        29.98F
THREE RIVERS*  FAIR      88  66  48 W6        29.98F

$$
OHZ001>008-015>018-024>025-222300-
NORTHWEST OHIO

CITY           SKY/WX    TMP DP  RH WIND       PRES   REMARKS
DEFIANCE       SUNNY     90  70  51 SW3       29.97F HX  95
FINDLAY        MOSUNNY   92  70  48 CALM      29.96F HX  97
TOLEDO EXPRESS SUNNY     91  71  51 SW10      29.96F HX  97
TOLEDO METCALF SUNNY     93  69  45 W10       29.96F HX  98
LIMA           MOSUNNY   87  72  60 SW8       29.99F

$$
AND FOR LAKE MICHIGAN COASTAL AND OPEN LAKE BUOY OBSERVATIONS

STATION/POSITION TEMP    WIND        PRES    VSBY  WAVE
                 AIR SEA DIR/SP/G                  HT/PER
                 (F)     (DEG/KT/KT) (MB)    (MI)  (FT/S)
CALUMET HARBOR    87     230/  5/  8 1014.7F
MICHIGAN CITY     81      CALM  /  1   N/A
BURNS HARBOR      86        CALM     1015.9F
SAINT JOSEPH      80     210/  5/  5 1016.9F
SOUTH LAKE BUOY   74 73  200/  6/  6 1015.0          1
4 MI NW BRIDGMAN  76 74  160/  2/  4 1015.5F         1
MICHIGAN CITY     81 77   CALM  /  2   N/A           1

$$
&&




USA.gov is the U.S. government's official web portal to all federal, state and local government web resources and services.